Location: Ab? ar R?sh Ba?r?
(24.1861°N, 32.8847°E)
Time: 10:01:14
(UTC+00:00)

SKYMED 2 - Pass Details

Date: 24 October 2021
Orbit: 621 x 623 km, 97.9° (Epoch: 03 December)

Event Time Altitude Azimuth Distance (km) Brightness Sun altitude
Rises 15:30:35 0° 16° (NNE) 2,899 6.7 -4.4°
Reaches altitude 10° 15:32:48 10° 19° (NNE) 1,990 5.9 -4.9°
Maximum altitude 15:37:05 63° 101° (E) 696 3.6 -5.9°
Drops below altitude 10° 15:41:21 10° 182° (S) 1,981 6.3 -6.8°
Sets 15:43:33 0° 186° (S) 2,884 7.2 -7.3°
